Location: ????????
(52.3000°N, 54.5000°E)
Time: 07:26:11
(UTC+00:00)

Daily predictions for brighter satellites

Satellite Brightness Start Highest point End
(mag) Time Altitude Azimuth Time Altitude Azimuth Time Altitude Azimuth
NOSS 3-2 (C) 4.2 14:45:52 10° NW 14:52:55 60° NE 15:01:01 10° ESE
MOS 1 Rocket 4.0 14:50:26 10° NNE 14:54:18 28° E 14:58:02 10° SSE
Cosmos 1939 Rocket 4.1 14:52:39 10° S 14:56:40 49° W 15:00:43 10° NNW
In-Cosmos 22 4.4 14:52:25 10° N 14:57:33 47° ENE 15:02:41 10° SE
NOSS 8 (E) 4.2 14:55:45 10° SW 14:58:52 85° NW 15:01:56 10° NE
NOSS 8 (H) 4.2 14:56:25 10° SSW 14:59:28 59° SE 15:02:30 10° NE
Cosmos 2297 Rocket 4.3 14:56:06 10° W 15:00:47 26° NW 15:05:30 10° NNE
HJ-1C 3.4 14:58:44 10° SSE 15:01:59 59° ENE 15:05:15 10° N
Cosmos 1898 Rocket 3.6 14:58:14 10° SSW 15:03:25 88° WNW 15:08:39 10° NNE
NOSS 3-1 (A) 4.3 14:58:02 10° WSW 15:03:42 52° NNW 15:10:27 10° NE
CZ-2C R/B 3.8 14:59:40 10° NE 15:04:00 23° E 15:08:21 10° SE
Cosmos 1674 4.0 15:00:54 10° NNE 15:04:00 22° ENE 15:07:04 10° ESE
ARGOS 3.3 14:58:57 10° SE 15:04:11 55° ENE 15:09:27 10° N
CZ-2C R/B 3.3 15:03:12 10° SSE 15:08:33 90° S 15:14:15 10° NNW
Cosmos 372 Rocket 4.3 15:04:10 10° S 15:09:04 42° ESE 15:13:59 10° NE
COSMOS 2406 4.4 15:05:22 10° NNW 15:10:08 26° NE 15:14:43 11° E
Cosmos 1975 Rocket 3.3 15:06:04 10° NNW 15:10:25 72° W 15:14:43 10° S
Cosmos 858 Rocket 4.5 15:08:28 10° SSW 15:13:41 84° ESE 15:18:56 10° NNE
SJ-11-01 4.3 15:11:09 10° SSE 15:15:52 88° E 15:20:36 10° NNW
COSMO-SKYMED 1 3.6 15:12:07 10° N 15:16:22 51° WNW 15:20:34 10° SW
NOSS 2-2 (E) 3.3 15:13:13 10° SSW 15:16:40 54° SE 15:20:42 10° NE
Cosmos 1867 4.4 15:13:51 10° NW 15:19:09 51° WSW 15:24:24 10° SSE
FREGAT/IRIS 3.7 15:17:57 15° ESE 15:19:17 21° ENE 15:21:22 10° NNE
CENTAUR R/B 3.2 15:15:41 10° NW 15:23:28 74° NE 15:31:51 11° SE
OBJECT-B 2.4 15:22:06 15° E 15:23:33 19° ENE 15:25:58 10° NNE
ATLAS 2AS CENTAUR R/B 4.1 15:19:19 10° SSE 15:24:26 19° ESE 15:29:32 10° ENE
NOSS 2-2 (D) 3.3 15:22:21 10° SSW 15:25:47 52° SE 15:29:44 10° NE
Cosmos 2263 Rocket 2.5 15:20:52 10° SW 15:26:25 72° WNW 15:32:03 10° NNE
Cosmos 1975 4.0 15:24:28 10° SSW 15:28:25 48° WNW 15:32:24 10° N
Cosmos 1937 Rocket 3.7 15:23:19 10° SSW 15:28:35 77° WNW 15:33:49 10° NNE
Cosmos 1844 4.4 15:25:03 10° SSE 15:29:52 29° ESE 15:34:40 10° NE
USA 186 2.0 15:27:10 10° SSE 15:30:15 50° ENE 15:33:28 10° N
Cosmos 1707 3.0 15:27:55 10° NNW 15:31:45 72° W 15:35:34 10° S
Cosmos 1844 Rocket 3.2 15:27:27 10° S 15:32:29 36° ESE 15:37:34 10° NE
ATLAS 3B R/B 3.3 15:26:03 10° NW 15:32:29 44° NNE 15:38:01 15° E
BREEZE-M TANK 4.2 15:23:37 10° SW 15:32:47 32° S 15:35:33 16° ESE
KORONAS-FOTON 4.3 15:29:22 10° N 15:33:07 40° ENE 15:36:18 13° SE
Cosmos 2150 Rocket 4.4 15:28:32 10° S 15:33:37 44° ESE 15:38:48 10° NE
Cosmos 1125 Rocket 4.2 15:31:27 10° SSE 15:36:09 33° ESE 15:40:51 10° NE
SJ 16-02 3.6 15:32:36 10° WSW 15:36:21 27° NW 15:40:08 10° N
Resurs 01 Rocket 2.9 15:37:25 18° E 15:39:30 25° ENE 15:43:07 10° N
CZ-4 R/B 3.7 15:37:08 10° SSW 15:40:47 28° W 15:44:26 10° NW
CREW DRAGON DEMO-1 DEB 2.9 15:37:50 10° W 15:40:51 62° SSW 15:42:22 26° ESE
USA 238 DEB 4.0 15:34:28 10° NW 15:41:38 77° SW 15:49:01 10° SE
USA 238 4.0 15:34:34 10° NW 15:41:44 78° SW 15:49:05 11° SE
Sich 1 Rocket 3.9 15:37:21 10° SSW 15:41:52 75° WNW 15:46:27 10° N
Cosmos 1513 Rocket 4.4 15:38:00 10° S 15:44:14 82° E 15:50:25 10° NNE
MetOp-A 4.2 15:39:00 10° SSE 15:44:15 60° ENE 15:49:33 10° N
USA 116 4.2 15:41:13 10° N 15:44:35 58° WNW 15:48:21 10° SSW
NOSS 5 (C) 4.4 15:45:12 10° NW 15:48:12 58° NE 15:49:46 27° ESE
Cosmos 2285 Rocket 4.4 15:44:47 10° S 15:50:34 40° ESE 15:56:25 10° NE
ISS -3.3 15:48:09 10° SW 15:51:22 43° SSE 15:52:32 30° ESE
Cosmos 1833 Rocket 3.6 15:47:14 10° NNW 15:52:24 34° NE 15:55:25 21° E
Cosmos 1766 4.1 15:52:31 26° ESE 15:53:29 29° E 15:56:55 10° NNE
Okean 1 Rocket 3.6 15:50:03 10° SSE 15:54:09 37° E 15:58:19 10° NNE
Cosmos 1464 Rocket 4.0 15:48:43 10° S 15:54:51 88° W 16:01:06 10° N
ARIANE 5 R/B 4.0 15:55:01 20° E 15:56:01 22° ENE 15:59:20 10° N
Cosmos 1092 Rocket 4.0 15:50:37 10° N 15:56:44 62° ENE 16:02:30 12° SSE
SJ-6B 2.6 15:53:54 15° SSE 15:56:58 78° ENE 16:00:46 10° NNW
Cosmos 1300 Rocket 3.6 15:52:41 10° SSW 15:57:05 82° W 16:01:34 10° N
Okean 2 Rocket 3.2 15:52:45 10° SSW 15:57:15 80° W 16:01:45 10° N
MOS 1 4.3 15:53:17 10° SSE 15:58:59 83° ENE 16:04:44 10° NNW
Cosmos 1048 Rocket 4.4 15:54:42 10° NNW 15:59:59 66° WSW 16:05:17 10° SSE
Cosmos 2026 Rocket 4.2 15:54:17 10° N 16:00:32 53° ENE 16:05:12 18° SE
Cosmos 1626 2.7 15:59:13 10° N 16:02:42 37° ENE 16:03:25 33° E
H-2A R/B 3.4 16:02:35 10° SSW 16:07:15 39° W 16:12:03 10° NNW
Abrixas rocket 2.9 16:07:21 10° WSW 16:09:56 31° S 16:09:58 31° S
NOSS 2-2 (C) 3.5 16:06:52 10° SW 16:10:26 69° NW 16:14:39 10° NE
Resurs 1-3 3.6 16:08:39 27° SE 16:10:55 62° ENE 16:15:16 10° N
Cosmos 1536 Rocket 4.3 16:10:13 10° NNW 16:14:34 54° W 16:18:55 10° S
Cosmos 1269 Rocket 4.0 16:11:19 10° NNW 16:16:40 72° ENE 16:19:22 30° SE
Cosmos 1025 Rocket 4.4 16:12:55 10° NNW 16:17:00 39° W 16:21:05 10° SSW
Spot 2 Rocket 4.4 16:16:17 27° E 16:17:26 30° ENE 16:21:48 10° N
Meteor 1-15 Rocket 4.1 16:13:44 10° S 16:19:22 79° E 16:25:09 10° NNE
Cosmos 1892 Rocket 3.9 16:16:30 10° N 16:20:39 42° ENE 16:21:17 39° E
SPOT 1/Viking Rocket 4.5 16:19:58 27° E 16:21:04 30° ENE 16:25:30 10° N
Cosmos 1340 Rocket 4.1 16:24:37 26° NE 16:24:37 26° NE 16:26:53 10° NNE
Cosmos 494 Rocket 4.4 16:18:07 10° NNW 16:23:21 64° WSW 16:27:14 18° S
Ariane Rocket 3.6 16:19:22 10° S 16:24:22 57° WSW 16:29:24 10° NNW
Lacrosse 5 rocket 2.3 16:20:20 10° WNW 16:24:33 45° N 16:26:43 26° ENE
USA 234 3.8 16:24:34 30° ESE 16:25:49 32° SE 16:31:33 10° SSW
Lacrosse 4 Rocket 2.5 16:22:28 10° NNW 16:26:03 28° NE 16:26:38 27° NE
ATLAS CENTAUR R/B 3.8 16:27:25 10° NNW 16:29:11 13° N 16:30:56 10° NNE
SPOT 5 4.4 16:28:53 23° ENE 16:29:35 23° NE 16:33:43 10° N
Exosat Rocket 3.4 16:29:31 10° SSW 16:34:51 74° ESE 16:39:52 10° NNE
Cosmos 2082 Rocket 2.8 16:33:20 10° NNW 16:38:40 42° NE 16:40:06 35° E
Landsat 7 4.2 16:39:06 43° E 16:39:35 44° ENE 16:44:07 10° N
Cosmos 1674 4.0 16:36:04 10° NNW 16:39:40 38° W 16:42:24 16° SSW
CZ-2C R/B 3.0 16:39:17 10° NNE 16:44:49 71° WNW 16:50:23 10° SSW
IGS 5A 3.9 16:45:07 45° NE 16:45:07 45° NE 16:48:48 10° N
CRYOSAT 2 4.4 16:40:54 10° NNE 16:45:44 54° E 16:46:04 53° ESE
Meteor 2-5 Rocket 4.0 16:40:51 10° NNW 16:46:28 67° W 16:50:21 21° S
CZ-2C R/B 3.5 16:46:33 10° NNE 16:51:01 69° ESE 16:51:15 67° SE
NOSS 3-4 (A) 3.5 16:45:36 10° SSW 16:51:16 49° SE 16:57:22 10° NE
NOSS 3-4 (C) 3.5 16:45:43 10° SSW 16:51:23 49° ESE 16:57:28 10° NE
Cosmos 2251 Rocket 3.9 16:46:17 10° NNW 16:51:30 47° ENE 16:52:12 45° E
Cosmos 1805 3.8 16:49:45 19° SSW 16:52:24 57° WNW 16:56:17 10° N
SPOT 3 Rocket 3.8 16:50:55 30° S 16:53:25 66° WSW 16:58:35 10° NNW
Cosmos 1733 3.3 16:54:12 66° SW 16:54:36 73° WNW 16:58:27 10° N
BREEZE-M DEB (TANK) 4.5 16:50:27 10° SW 16:54:48 69° SSE 17:13:37 10° ENE
COSMOS 2406 3.1 16:49:26 10° NNW 16:55:09 85° WSW 16:56:47 49° SSE
OBJECT-B 2.2 16:55:18 32° WSW 16:55:44 34° W 16:58:45 10° NNW
Meteor 1-22 Rocket 4.2 16:52:07 21° S 16:56:17 80° E 17:02:23 10° NNE
MetOp-B 4.0 16:57:16 54° SSE 16:58:30 80° ENE 17:03:53 10° NNW
Okean 1-7 Rocket 3.5 16:54:37 10° N 16:59:13 74° ENE 16:59:17 74° E
Meteor 1-24 Rocket 4.0 16:56:11 10° NNW 17:01:38 65° W 17:04:21 31° S
Cosmos 2266 Rocket 4.1 16:57:23 10° N 17:03:16 50° ENE 17:03:51 48° E
Cosmos 1461 4.4 17:05:46 10° NNW 17:10:04 32° NNE 17:10:27 31° NE
Cosmos 2278 Rocket 3.6 17:14:53 25° NE 17:14:53 25° NE 17:17:18 10° NE
Cosmos 1844 4.1 17:08:02 10° SW 17:13:41 61° NW 17:19:17 10° NNE
CENTAUR R/B 4.0 17:06:36 10° NW 17:14:06 43° WSW 17:19:02 23° S
ATLAS 2AS CENTAUR R/B 2.9 17:06:19 10° SSW 17:14:10 66° SE 17:21:56 10° NE
Cosmos 1626 Rocket 4.3 17:10:03 10° N 17:13:21 42° NNE 17:13:21 42° NNE
SL-14 R/B 4.3 17:11:43 10° NNW 17:15:26 41° W 17:15:42 41° WSW
Resurs 01 Rocket 2.3 17:14:59 45° SW 17:15:45 50° W 17:20:07 10° NNW
Cosmos 1844 Rocket 3.5 17:10:51 10° SW 17:16:15 50° NW 17:21:43 10° NNE
ERS-1 Rocket 3.4 17:17:31 50° NE 17:17:31 50° NE 17:21:59 10° N
Cosmos 1125 Rocket 4.4 17:12:55 10° SW 17:18:04 48° WNW 17:23:15 10° NNE
Cosmos 1455 Rocket 3.9 17:21:08 41° NNE 17:21:08 41° NNE 17:24:03 10° NNE
ATLAS 3B R/B 2.7 17:16:52 10° NW 17:23:42 76° SW 17:25:16 56° SSE
Cosmos 1655 Rocket 3.9 17:17:48 10° N 17:24:07 85° ENE 17:25:11 64° SSE
Cosmos 1634 Rocket 4.4 17:18:33 10° SSW 17:24:39 61° WNW 17:30:49 10° N
Meteor 1-21 Rocket 4.2 17:20:23 10° N 17:26:09 70° ENE 17:26:15 70° E
Meteor 2-19 Rocket 4.4 17:21:00 10° NNW 17:27:09 77° W 17:28:30 56° SSW
ISS -1.1 17:24:39 10° W 17:25:30 16° W 17:25:30 16° W
Terra 2.8 17:32:42 37° NNE 17:32:42 37° NNE 17:36:04 10° N
ARIANE 5 R/B 3.2 17:32:34 54° WNW 17:32:34 54° WNW 17:36:27 10° NNW
Cosmos 1833 Rocket 2.9 17:31:06 10° NW 17:36:40 59° WSW 17:37:07 57° SW
Cosmos 1626 4.4 17:34:55 10° NW 17:37:44 21° W 17:37:58 21° W
Cosmos 2098 Rocket 4.0 17:33:45 10° NNW 17:40:54 78° W 17:41:54 64° SSW
Spot 2 Rocket 4.2 17:56:29 49° W 17:56:29 49° W 18:01:09 10° NNW
Cosmos 909 Rocket 4.0 17:51:21 10° NW 17:57:54 70° SW 17:57:57 70° SW
SPOT 1/Viking Rocket 4.1 18:00:37 51° W 18:00:37 51° W 18:05:20 10° NNW
Lacrosse 5 rocket 3.0 17:59:43 10° WNW 18:02:20 35° NW 18:02:20 35° NW
Lacrosse 4 Rocket 3.4 18:00:59 10° NW 18:02:56 26° WNW 18:02:56 26° WNW
SPOT 5 3.6 18:08:07 58° NW 18:08:07 58° NW 18:12:29 10° NNW
ATLAS CENTAUR R/B 4.0 18:07:00 10° NNW 18:08:12 14° N 18:08:12 14° N
USA 234 3.9 18:12:03 41° SW 18:12:03 41° SW 18:16:02 10° WSW
Cosmos 407 Rocket 4.5 18:14:20 10° NNW 18:17:48 43° NNW 18:17:48 43° NNW
Cosmos 2082 Rocket 3.1 18:17:30 10° NW 18:21:56 42° W 18:21:56 42° W
NOSS 3-4 (A) 4.1 18:36:16 10° WSW 18:42:11 53° NNW 18:48:38 10° NE
NOSS 3-4 (C) 4.1 18:36:22 10° WSW 18:42:16 53° NNW 18:48:44 10° NE
Cosmos 2278 Rocket 3.3 18:56:41 41° NNW 18:56:41 41° NNW 19:01:30 10° NNE
ATLAS 2AS CENTAUR R/B 3.6 18:57:45 10° WSW 19:05:33 54° NNW 19:13:07 10° NE
Terra 4.0 19:11:35 21° NW 19:11:35 21° NW 19:13:37 10° NNW
ATLAS 3B R/B 4.5 19:08:37 10° WNW 19:12:30 20° W 19:12:30 20° W
COSMOS 2455 4.2 19:20:44 34° NNE 19:20:44 34° NNE 19:24:08 10° NE
CZ-4C R/B 4.1 19:23:21 25° NE 19:23:21 25° NE 19:26:00 10° NE
NOSS 3-1 (C) 4.2 19:21:42 10° NW 19:28:07 65° N 19:28:07 65° N
Cosmos 2227 Rocket 4.4 19:28:24 10° NNW 19:32:18 19° NNE 19:33:31 17° NE
Cosmos 1943 Rocket 3.9 19:57:42 27° NNE 19:57:42 27° NNE 20:00:08 10° NNE
Cosmos 2297 Rocket 3.8 20:14:38 10° NNW 20:18:42 30° NNE 20:18:42 30° NNE
Cosmos 2369 Rocket 3.8 20:32:18 31° NNE 20:32:18 31° NNE 20:35:17 10° NNE
SL-16 R/B 3.9 20:31:16 31° NE 20:31:16 31° NE 20:36:33 10° N
ATLAS 2AS CENTAUR R/B 4.3 20:50:59 10° WNW 20:58:10 36° N 21:05:01 10° ENE
CZ-4C R/B 3.7 21:08:31 34° NNW 21:09:06 35° NNW 21:15:18 10° NE
Cosmos 2227 Rocket 3.6 21:12:03 10° NNW 21:15:17 33° N 21:15:17 33° N
USA 234 3.5 21:28:41 10° E 21:35:07 64° N 21:35:41 61° NNW
CZ-2D R/B 3.6 21:31:06 10° NNE 21:34:33 32° ENE 21:34:33 32° ENE
Cosmos 1943 Rocket 4.0 21:39:12 22° NW 21:39:12 22° NW 21:43:32 10° NNE
Resurs 1-4 Rocket 3.5 21:35:18 10° NNE 21:38:47 35° NE 21:38:47 35° NE
ATLAS 5 CENTAUR R/B 3.7 21:48:59 25° NE 21:48:59 25° NE 21:51:08 10° NE
Cosmos 2181 Rocket 4.3 21:56:55 62° NE 21:56:55 62° NE 22:02:17 10° NNE
Cosmos 2297 Rocket 4.0 21:58:34 10° NW 22:00:27 22° NW 22:00:27 22° NW
SL-16 R/B 3.2 22:16:22 45° NW 22:16:22 45° NW 22:20:41 10° NNW
Cosmos 2369 Rocket 4.1 22:14:04 20° NW 22:14:47 20° NNW 22:18:58 10° NNE
SJ 16-02 3.8 22:16:33 10° N 22:19:53 20° NE 22:23:12 10° E
Cosmos 1697 Rocket 3.6 22:22:33 40° ESE 22:22:33 40° ESE 22:27:32 10° NE
Cosmos 1980 Rocket 3.7 22:27:05 25° ESE 22:28:00 26° ESE 22:32:37 10° NE
Cosmos 2263 Rocket 3.5 22:24:32 10° NNW 22:29:49 39° NE 22:35:06 10° ESE
ARIANE 5 R/B 4.1 22:29:45 10° NE 22:34:07 28° E 22:35:19 25° ESE
ADEOS II 2.5 22:31:25 10° NNE 22:36:32 55° E 22:36:32 55° E
USA 267 4.1 22:34:29 10° ENE 22:40:27 36° SE 22:41:12 35° SSE
Meteor 1-25 Rocket 4.4 22:35:11 10° N 22:41:02 72° ENE 22:41:37 67° ESE
IRS-1D 3.8 22:35:47 10° NNE 22:41:01 65° E 22:41:01 65° E
IDEFIX/ARIANE 42P 4.3 22:39:36 10° NNE 22:44:08 28° E 22:46:27 21° SE
CBERS-1 4.1 22:43:55 10° NNE 22:48:52 70° E 22:48:52 70° E
Cosmos 1656 3.6 22:49:45 77° N 22:49:45 77° N 22:54:58 10° NNE
Cosmos 972 Rocket 4.5 22:50:45 49° ESE 22:50:48 49° ESE 22:55:36 10° NNE
ATLAS 2AS CENTAUR R/B 3.9 22:43:31 10° NW 22:50:57 45° NNE 22:57:52 10° E
Gbstr 26 Del rocket 4.3 22:49:20 53° W 22:51:31 78° SSW 22:59:12 10° ESE
Cosmos 1821 Rocket 3.9 22:47:39 10° N 22:54:02 89° E 22:55:10 63° SSE
Cosmos 1470 Rocket 4.4 22:49:41 10° N 22:53:04 49° NNE 22:53:04 49° NNE
Cosmos 1933 4.4 22:59:43 44° NNE 22:59:43 44° NNE 23:02:35 10° NNE
Lacrosse 5 2.3 22:58:57 53° ESE 22:58:57 53° ESE 23:03:26 10° ENE
CZ-4C R/B 4.1 22:53:41 10° NW 22:59:21 34° NNE 23:06:00 10° ENE
Cosmos 2227 Rocket 4.4 22:56:31 10° NW 22:57:03 12° NW 22:57:03 12° NW
Cosmos 1934 Rocket 4.2 22:57:42 10° N 23:03:45 66° ENE 23:08:01 20° SSE
SL-08 R/B 3.4 23:04:33 67° N 23:04:33 67° N 23:08:35 10° NNW
IRS-1C 4.4 23:01:37 10° NNE 23:06:57 64° ESE 23:08:03 52° SSE
Meteor 1-14 Rocket 4.4 23:02:40 10° N 23:08:18 69° ENE 23:11:39 25° SSE
CZ-3B R/B 2.3 23:15:44 62° ESE 23:15:44 62° ESE 23:22:21 10° ENE
AQUA 4.5 23:11:05 10° N 23:14:58 43° NW 23:14:58 43° NW
BREEZE-M DEB (TANK) 4.2 23:14:17 55° WSW 23:15:41 74° S 23:37:06 10° E
CZ-2D R/B 2.8 23:11:16 10° N 23:15:52 38° NW 23:15:52 38° NW
Cosmos 1515 Rocket 3.9 23:16:02 58° SE 23:16:26 61° E 23:20:50 10° NNE
USA 305 3.5 23:17:20 49° ESE 23:17:20 49° ESE 23:20:50 10° ENE
USA 234 3.1 23:11:33 10° ESE 23:18:05 79° SSW 23:23:00 19° WNW
Resurs 1-4 Rocket 2.9 23:15:21 10° N 23:19:51 35° NW 23:19:51 35° NW
USA 306 3.3 23:21:25 54° ESE 23:21:25 54° ESE 23:25:04 10° ENE
Meteor 1-20 Rocket 4.2 23:15:33 10° NNW 23:20:31 57° WNW 23:20:31 57° WNW
Cosmos 389 Rocket 3.4 23:22:45 46° ENE 23:22:45 46° ENE 23:25:54 10° NNE
Cosmos 1151 Rocket 3.3 23:25:44 56° NNW 23:25:44 56° NNW 23:29:27 10° N
Nadezhda 3 Rocket 3.8 23:23:57 52° SSW 23:25:32 77° WNW 23:31:44 10° N
Cosmos 1328 Rocket 3.6 23:25:59 66° NW 23:25:59 66° NW 23:30:04 10° N
Cosmos 2278 3.8 23:25:36 46° S 23:27:16 71° ESE 23:32:58 10° NE
NPP 4.3 23:24:33 10° N 23:29:28 37° WNW 23:29:36 37° WNW
Cosmos 1933 Rocket 3.5 23:26:53 10° NNW 23:30:49 68° NW 23:30:49 68° NW
ATLAS 5 CENTAUR R/B 3.0 23:30:31 27° NW 23:31:33 30° NNW 23:36:03 10° NE
Cosmos 1605 Rocket 4.3 23:25:45 10° N 23:32:09 71° ENE 23:38:33 10° SSE
Cosmos 1818 4.4 23:32:27 34° WNW 23:33:42 39° NNW 23:38:50 10° NE
Cosmos 1535 Rocket 4.4 23:27:24 10° NNW 23:33:49 84° W 23:39:23 14° S
Cosmos 2369 3.7 23:34:56 52° SW 23:36:20 76° WNW 23:42:06 10° NNE
Spot 4 Rocket 4.4 23:31:34 10° NNE 23:36:42 62° ESE 23:39:25 27° S
CZ-4B R/B 3.7 23:32:24 10° N 23:37:19 51° WNW 23:37:48 49° W
CZ-2C R/B 3.9 23:35:01 10° NNE 23:38:36 39° E 23:40:15 26° SSE
X-37B 3.5 23:41:45 11° SE 23:41:45 11° SE 23:41:52 10° SE
Cosmos 1782 2.6 23:42:19 78° W 23:42:23 79° WNW 23:46:27 10° N
CZ-2D R/B 3.6 23:39:18 10° NNE 23:43:32 75° ESE 23:44:47 45° S
Cosmos 1898 Rocket 3.9 23:38:19 10° NNW 23:43:34 65° ENE 23:48:49 10° SE
IRS-P3 4.1 23:40:50 10° N 23:46:08 64° WNW 23:47:35 45° SW
USA 307 2.8 23:48:21 66° SW 23:48:51 77° SSE 23:53:07 10° ENE
ATLAS CENTAUR R/B 3.9 23:34:50 10° WNW 23:49:02 65° N 23:54:10 10° E
Cosmos 2228 Rocket 3.3 23:47:25 31° S 23:49:27 68° E 23:53:52 10° NNE
Meteor 1-11 Rocket 4.3 23:44:37 10° N 23:50:23 59° ENE 23:55:59 10° SSE
Cosmos 1869 Rocket 3.6 23:46:29 10° N 23:50:51 75° ENE 23:55:10 10° SSE
USA 308 2.8 23:51:27 63° SW 23:52:05 79° SSE 23:56:21 10° ENE
